Hourly Weather Chabowka

Today, 25 June, Friday

Time Temperature Precipitation Wind Pressure Humidity
00:00 +19°C° 0.6 mm 1 mps 714 mmHg 96%
01:00 +19°C° 0 mm 1 mps 715 mmHg 97%
02:00 +19°C° 0.4 mm 1 mps 714 mmHg 97%
03:00 +19°C° 0.4 mm 1 mps 714 mmHg 97%
04:00 +19°C° 0.4 mm 1 mps 714 mmHg 97%
05:00 +19°C° 0 mm 1 mps 714 mmHg 95%
06:00 +20°C° 0 mm 1 mps 714 mmHg 93%
07:00 +20°C° 0 mm 1 mps 714 mmHg 91%
08:00 +21°C° 0.1 mm 1 mps 714 mmHg 89%
09:00 +22°C° 0.1 mm 1 mps 715 mmHg 86%
10:00 +22°C° 0.1 mm 1 mps 715 mmHg 84%
11:00 +21°C° 0.6 mm 2 mps 715 mmHg 86%
12:00 +20°C° 0.6 mm 2 mps 715 mmHg 89%
13:00 +19°C° 0.6 mm 2 mps 715 mmHg 91%
14:00 +19°C° 0.2 mm 2 mps 715 mmHg 90%
15:00 +19°C° 0.2 mm 2 mps 715 mmHg 89%
16:00 +20°C° 0.2 mm 1 mps 715 mmHg 88%
17:00 +20°C° 0 mm 1 mps 715 mmHg 89%
18:00 +19°C° 0 mm 1 mps 715 mmHg 90%
19:00 +19°C° 0 mm 1 mps 715 mmHg 91%
20:00 +18°C° 0 mm 1 mps 715 mmHg 92%
21:00 +18°C° 0 mm 1 mps 715 mmHg 93%
22:00 +16°C° 0 mm 1 mps 715 mmHg 94%
23:00 +14°C° 0 mm 0 mps 715 mmHg 94%

Tomorrow, 26 June, Saturday

Time Temperature Precipitation Wind Pressure Humidity
00:00 +14°C° 0 mm 0 mps 715 mmHg 95%
01:00 +13°C° 0 mm 0 mps 715 mmHg 95%
02:00 +13°C° 0 mm 0 mps 715 mmHg 95%
03:00 +13°C° 0 mm 0 mps 715 mmHg 96%
04:00 +13°C° 0 mm 0 mps 716 mmHg 96%
05:00 +14°C° 0.1 mm 0 mps 716 mmHg 95%
06:00 +15°C° 0.1 mm 0 mps 716 mmHg 93%
07:00 +16°C° 0.1 mm 0 mps 717 mmHg 92%
08:00 +19°C° 0.1 mm 1 mps 717 mmHg 83%
09:00 +21°C° 0.1 mm 1 mps 717 mmHg 75%
10:00 +23°C° 0.1 mm 2 mps 717 mmHg 67%
11:00 +23°C° 0.2 mm 2 mps 717 mmHg 67%
12:00 +23°C° 0.2 mm 2 mps 716 mmHg 67%
13:00 +23°C° 0.2 mm 2 mps 716 mmHg 66%
14:00 +23°C° 0.8 mm 2 mps 716 mmHg 71%
15:00 +21°C° 0.8 mm 2 mps 716 mmHg 76%
16:00 +21°C° 0.8 mm 2 mps 716 mmHg 81%
17:00 +20°C° 0.4 mm 2 mps 716 mmHg 84%
18:00 +20°C° 0.4 mm 1 mps 716 mmHg 88%
19:00 +19°C° 0.4 mm 1 mps 716 mmHg 92%
20:00 +18°C° 0 mm 1 mps 716 mmHg 93%
21:00 +16°C° 0 mm 1 mps 716 mmHg 94%
22:00 +15°C° 0 mm 1 mps 717 mmHg 95%
23:00 +14°C° 0 mm 0 mps 717 mmHg 95%

Day after tomorrow, 27 June, Sunday

Time Temperature Precipitation Wind Pressure Humidity
00:00 +14°C° 0 mm 0 mps 716 mmHg 96%
01:00 +14°C° 0 mm 0 mps 716 mmHg 96%
02:00 +13°C° 0 mm 0 mps 716 mmHg 96%
03:00 +13°C° 0 mm 0 mps 716 mmHg 96%
04:00 +13°C° 0 mm 0 mps 717 mmHg 96%
05:00 +14°C° 0 mm 0 mps 717 mmHg 94%
06:00 +16°C° 0 mm 0 mps 717 mmHg 91%
07:00 +17°C° 0 mm 0 mps 717 mmHg 88%
08:00 +21°C° 0.1 mm 1 mps 717 mmHg 80%
09:00 +22°C° 0.1 mm 1 mps 717 mmHg 72%
10:00 +24°C° 0.1 mm 1 mps 717 mmHg 64%
11:00 +24°C° 0.6 mm 1 mps 717 mmHg 67%
12:00 +23°C° 0.6 mm 2 mps 717 mmHg 71%
13:00 +23°C° 0.6 mm 2 mps 717 mmHg 74%
14:00 +23°C° 0.6 mm 1 mps 717 mmHg 75%
15:00 +23°C° 0.6 mm 1 mps 717 mmHg 76%
16:00 +23°C° 0.6 mm 1 mps 717 mmHg 77%
17:00 +22°C° 0.4 mm 1 mps 717 mmHg 82%
18:00 +21°C° 0.4 mm 1 mps 717 mmHg 86%
19:00 +20°C° 0.4 mm 1 mps 716 mmHg 91%
20:00 +19°C° 0.1 mm 1 mps 717 mmHg 92%
21:00 +18°C° 0.1 mm 1 mps 717 mmHg 93%
22:00 +16°C° 0.1 mm 1 mps 717 mmHg 94%
23:00 +15°C° 0 mm 0 mps 717 mmHg 94%

28 June, Monday

Time Temperature Precipitation Wind Pressure Humidity
00:00 +15°C° 0 mm 0 mps 717 mmHg 94%
01:00 +14°C° 0 mm 0 mps 717 mmHg 94%
02:00 +15°C° 0 mm 1 mps 716 mmHg 94%
03:00 +15°C° 0 mm 1 mps 716 mmHg 94%
04:00 +15°C° 0 mm 1 mps 716 mmHg 94%
05:00 +16°C° 0 mm 1 mps 716 mmHg 91%
06:00 +17°C° 0 mm 0 mps 717 mmHg 87%
07:00 +19°C° 0 mm 0 mps 717 mmHg 83%
08:00 +22°C° 0 mm 1 mps 717 mmHg 74%
09:00 +24°C° 0 mm 1 mps 717 mmHg 65%
10:00 +26°C° 0 mm 1 mps 717 mmHg 55%
11:00 +27°C° 0 mm 1 mps 717 mmHg 54%
12:00 +27°C° 0 mm 2 mps 717 mmHg 52%
13:00 +28°C° 0 mm 2 mps 717 mmHg 50%
14:00 +27°C° 0.8 mm 2 mps 717 mmHg 58%
15:00 +25°C° 0.8 mm 2 mps 716 mmHg 67%
16:00 +24°C° 0.8 mm 2 mps 716 mmHg 75%
17:00 +23°C° 1.2 mm 1 mps 716 mmHg 80%
18:00 +22°C° 1.2 mm 1 mps 716 mmHg 86%
19:00 +20°C° 1.2 mm 1 mps 716 mmHg 91%
20:00 +19°C° 0.1 mm 1 mps 716 mmHg 92%
21:00 +18°C° 0.1 mm 1 mps 716 mmHg 92%
22:00 +18°C° 0.1 mm 1 mps 715 mmHg 92%
23:00 +16°C° 0 mm 1 mps 715 mmHg 93%

29 June, Tuesday

Time Temperature Precipitation Wind Pressure Humidity
00:00 +16°C° 0 mm 1 mps 715 mmHg 93%
01:00 +16°C° 0 mm 1 mps 715 mmHg 93%
02:00 +18°C° 0 mm 1 mps 714 mmHg 92%
03:00 +18°C° 0 mm 1 mps 714 mmHg 91%
04:00 +18°C° 0 mm 1 mps 714 mmHg 90%
05:00 +20°C° 0 mm 1 mps 714 mmHg 85%
06:00 +21°C° 0 mm 1 mps 714 mmHg 80%
07:00 +23°C° 0 mm 1 mps 714 mmHg 75%
08:00 +25°C° 0 mm 1 mps 714 mmHg 66%
09:00 +27°C° 0 mm 1 mps 714 mmHg 57%
10:00 +29°C° 0 mm 1 mps 714 mmHg 48%
11:00 +30°C° 0 mm 1 mps 714 mmHg 47%
12:00 +30°C° 0 mm 2 mps 713 mmHg 46%
13:00 +31°C° 0 mm 2 mps 713 mmHg 45%
14:00 +30°C° 0.1 mm 2 mps 713 mmHg 51%
15:00 +29°C° 0.1 mm 2 mps 713 mmHg 57%
16:00 +28°C° 0.1 mm 2 mps 712 mmHg 64%
17:00 +26°C° 0.1 mm 2 mps 712 mmHg 69%
18:00 +25°C° 0.1 mm 1 mps 712 mmHg 75%
19:00 +24°C° 0.1 mm 1 mps 712 mmHg 81%
20:00 +23°C° 0 mm 1 mps 712 mmHg 82%
21:00 +22°C° 0 mm 1 mps 712 mmHg 83%
22:00 +20°C° 0 mm 1 mps 712 mmHg 84%
23:00 +20°C° 0 mm 1 mps 711 mmHg 85%

30 June, Wednesday

Time Temperature Precipitation Wind Pressure Humidity
00:00 +20°C° 0 mm 1 mps 711 mmHg 85%
01:00 +19°C° 0 mm 1 mps 711 mmHg 85%
02:00 +19°C° 0 mm 1 mps 711 mmHg 85%
03:00 +19°C° 0 mm 1 mps 710 mmHg 86%
04:00 +19°C° 0 mm 1 mps 710 mmHg 86%
05:00 +21°C° 0 mm 1 mps 711 mmHg 80%
06:00 +23°C° 0 mm 2 mps 711 mmHg 75%
07:00 +24°C° 0 mm 2 mps 711 mmHg 69%
08:00 +25°C° 0 mm 2 mps 711 mmHg 66%
09:00 +26°C° 0 mm 2 mps 712 mmHg 63%
10:00 +27°C° 0 mm 2 mps 712 mmHg 61%
11:00 +26°C° 0.5 mm 3 mps 712 mmHg 65%
12:00 +26°C° 0.5 mm 3 mps 712 mmHg 68%
13:00 +25°C° 0.5 mm 3 mps 712 mmHg 72%
14:00 +25°C° 0.5 mm 3 mps 712 mmHg 74%
15:00 +25°C° 0.5 mm 3 mps 713 mmHg 76%
16:00 +24°C° 0.5 mm 3 mps 713 mmHg 78%
17:00 +23°C° 0.1 mm 2 mps 713 mmHg 82%
18:00 +21°C° 0.1 mm 2 mps 713 mmHg 86%
19:00 +21°C° 0.1 mm 1 mps 713 mmHg 91%
20:00 +21°C° 0.1 mm 1 mps 713 mmHg 92%
21:00 +20°C° 0.1 mm 1 mps 713 mmHg 93%
22:00 +19°C° 0.1 mm 1 mps 714 mmHg 95%
23:00 +19°C° 0 mm 1 mps 713 mmHg 95%
Show more

We Need Your Consent

Meteoprog and our Service Providers may store and access personal data such as cookies, device identifiers or other similar technologies on your device and process such data to personalise content and ads, as well as provide social media features and to analyse the traffic.

  • Store and/or access information on your device

    Cookies, device identifiers or other information can be stored or accessed on your device for the purposes indicated above.

  • Personalised ads and content, ad and content measurement, audience insights, and products development

    Ads and content can be personalised based on a profile. More data can be added to better personalise ads and content. Ad and content performance can be measured. Insights about the audience who saw the ads and content can be derived. Such data can be used to develop or improve user’s experience, systems and software.

By clicking ‘I Agree’ you will allow the use of indicated cookies, device identifiers, web beacons or other similar technologies. Your settings can be changed in the browser on your device.

For certain purposes, legitimate interests may be relied on, rather than consent. You can read more about this in our Privacy and Cookie Policy.